TimeCDT,TemperatureF,Dew PointF,Humidity,Sea Level PressureIn,VisibilityMPH,Wind Direction,Wind SpeedMPH,Gust SpeedMPH,PrecipitationIn,Events,Conditions,WindDirDegrees,DateUTC
12:52 AM,68.0,63.0,84,29.97,10.0,East,4.6,-,N/A,,Clear,100,2012-11-03 05:52:00
1:52 AM,66.9,63.0,87,29.96,10.0,ESE,5.8,-,N/A,,Clear,120,2012-11-03 06:52:00
2:52 AM,66.9,64.0,90,29.96,10.0,SSE,6.9,-,N/A,,Clear,150,2012-11-03 07:52:00
3:52 AM,66.9,64.0,90,29.95,10.0,South,4.6,-,N/A,,Clear,170,2012-11-03 08:52:00
4:52 AM,66.0,64.0,93,29.96,10.0,East,4.6,-,N/A,,Clear,90,2012-11-03 09:52:00
5:52 AM,64.9,63.0,93,29.96,10.0,ESE,5.8,-,N/A,,Clear,120,2012-11-03 10:52:00
6:52 AM,64.9,63.0,93,29.97,10.0,Calm,Calm,-,N/A,,Clear,0,2012-11-03 11:52:00
7:52 AM,63.0,62.1,97,29.99,10.0,East,5.8,-,N/A,,Clear,100,2012-11-03 12:52:00
8:52 AM,70.0,66.0,87,30.01,10.0,ESE,3.5,-,N/A,,Clear,120,2012-11-03 13:52:00
9:52 AM,79.0,68.0,69,30.02,10.0,South,9.2,-,N/A,,Clear,170,2012-11-03 14:52:00
10:52 AM,82.9,66.0,56,30.03,10.0,SSE,13.8,-,N/A,,Clear,150,2012-11-03 15:52:00
10:59 AM,84.2,66.2,55,30.03,10.0,SSE,13.8,-,N/A,,Scattered Clouds,160,2012-11-03 15:59:00
11:52 AM,87.1,64.9,48,30.02,10.0,SSE,15.0,23.0,N/A,,Scattered Clouds,160,2012-11-03 16:52:00
12:52 PM,84.0,68.0,58,29.99,10.0,ESE,12.7,23.0,N/A,,Scattered Clouds,120,2012-11-03 17:52:00
1:52 PM,90.0,63.0,40,29.96,10.0,South,15.0,-,N/A,,Clear,180,2012-11-03 18:52:00
2:52 PM,89.1,64.0,43,29.94,10.0,SSE,11.5,24.2,N/A,,Scattered Clouds,160,2012-11-03 19:52:00
3:52 PM,88.0,63.0,43,29.92,10.0,SSE,15.0,-,N/A,,Partly Cloudy,150,2012-11-03 20:52:00
4:52 PM,88.0,64.9,46,29.92,10.0,SSE,20.7,24.2,N/A,,Clear,150,2012-11-03 21:52:00
5:52 PM,84.9,62.1,46,29.93,10.0,South,17.3,23.0,N/A,,Clear,170,2012-11-03 22:52:00
6:52 PM,81.0,66.9,62,29.94,10.0,SSE,16.1,-,N/A,,Clear,150,2012-11-03 23:52:00
7:52 PM,78.1,68.0,71,29.97,10.0,SSE,11.5,-,N/A,,Clear,150,2012-11-04 00:52:00
8:52 PM,77.0,68.0,74,29.99,10.0,SE,9.2,-,N/A,,Clear,140,2012-11-04 01:52:00
9:52 PM,75.0,69.1,82,29.99,10.0,SSE,6.9,-,N/A,,Clear,150,2012-11-04 02:52:00
10:52 PM,73.9,69.1,85,30.00,10.0,SE,6.9,-,N/A,,Clear,140,2012-11-04 03:52:00
11:52 PM,73.0,69.1,87,30.00,10.0,SE,6.9,-,N/A,,Clear,140,2012-11-04 04:52:00